Wind_Speed
20 20 20 20 21 22 23 24 25 25 25 24 23 23 23 22 22 23 22 21 21 20 20 20 20 20 19 17 17 18 18 18 18 16 13 12 10 8 7 6 6 7 8 9 9 9 9 9 8 8 7 6 6 5 5 5 5 5 6 7 8 8 9 11 11 11 12 13 15 16 16 17 18 20 22 23 25 26 26 26 27 28 28 28 29
20 20 20 20 20 21 23 24 25 26 26 25 24 24 24 23 24 24 23 22 22 22 22 22 22 21 19 18 19 19 19 18 18 18 15 13 12 10 8 7 6 7 8 9 9 9 9 8 8 7 6 5 5 5 5 5 6 6 6 7 9 10 10 11 12 12 12 14 16 17 17 18 19 21 22 23 24 25 26 26 27 28 28 29 29
21 21 21 20 20 21 23 24 25 26 26 26 26 25 25 25 25 24 24 23 23 23 23 24 23 22 20 19 20 21 20 19 19 19 17 15 13 12 10 9 8 8 8 9 9 10 10 10 9 8 8 7 7 7 7 8 8 9 9 9 10 11 11 12 13 14 15 16 18 18 18 18 20 21 22 24 25 25 26 26 27 28 29 29 30
23 22 21 20 20 21 22 22 23 24 25 26 26 27 27 26 26 25 25 25 24 24 25 25 24 22 20 19 21 22 21 20 20 20 18 16 15 14 12 11 10 9 9 10 10 11 12 12 11 11 10 10 10 10 11 11 12 12 12 12 12 13 14 14 16 17 18 19 20 20 19 19 20 21 22 24 25 26 26 26 28 29 29 28 29
23 22 22 21 20 19 20 20 21 21 23 24 26 27 28 27 27 27 26 26 26 26 26 25 23 22 20 20 22 23 23 22 21 21 20 18 16 15 14 13 12 11 11 11 11 12 13 14 14 15 15 15 14 14 14 14 14 14 15 15 16 16 17 17 18 20 22 23 23 22 21 20 20 20 22 24 25 26 27 27 29 30 30 29 29
23 23 23 21 19 18 18 18 18 19 21 23 24 26 26 26 26 26 27 26 26 26 25 24 22 20 20 21 23 25 24 22 22 22 21 19 18 17 16 15 14 13 13 13 12 13 15 16 18 20 22 22 20 18 18 17 16 16 17 17 18 19 19 20 21 22 24 26 26 25 24 22 21 22 22 24 26 27 27 28 30 31 31 30 30
23 23 23 21 18 16 16 16 16 18 19 21 22 23 24 24 24 24 25 25 24 24 23 22 21 19 20 22 24 25 24 23 22 23 23 21 19 18 18 17 16 15 15 15 15 15 17 19 21 25 27 28 25 24 24 22 20 21 21 19 19 20 21 22 23 24 25 27 28 28 27 26 24 25 25 26 27 28 28 28 30 32 32 31 31
23 23 22 20 17 15 15 15 15 16 17 18 19 19 20 20 20 21 21 20 19 19 18 19 18 18 18 21 24 25 24 22 22 23 23 23 21 20 19 18 18 17 16 17 17 18 19 20 23 27 30 32 30 27 25 24 23 23 22 19 19 21 22 22 24 25 26 28 29 29 29 29 28 28 29 30 30 29 29 28 30 32 33 33 33
24 24 22 19 17 16 16 15 14 14 14 13 13 13 13 13 14 14 14 14 14 15 15 16 16 16 17 19 22 24 23 21 21 23 24 24 23 22 21 20 20 19 18 19 19 19 20 21 24 27 30 32 30 24 21 22 22 22 21 20 21 23 24 24 25 26 27 29 30 30 30 31 32 32 32 33 33 32 30 29 30 31 33 33 34
24 24 22 18 18 19 18 16 13 12 11 9 9 8 7 7 6 6 8 9 11 13 15 15 16 17 18 19 21 23 22 21 21 23 25 26 26 24 23 22 22 21 21 20 19 20 20 21 24 26 28 29 27 22 19 20 20 21 22 22 24 26 26 26 27 28 28 29 31 31 31 32 33 33 33 34 35 34 33 32 32 32 32 33 34
24 23 19 18 20 21 19 16 14 12 10 9 8 7 6 6 5 5 5 6 8 11 12 14 16 18 18 19 20 21 21 21 22 24 25 28 28 27 26 25 24 24 23 21 20 20 19 20 22 25 26 26 25 24 22 21 22 22 23 25 26 27 28 29 29 30 30 30 31 32 33 33 34 34 34 35 35 35 35 34 34 33 33 34 35
23 21 18 19 21 21 19 17 15 13 11 10 9 9 10 9 8 7 8 9 9 9 9 11 13 16 18 19 19 19 20 22 23 24 26 29 30 29 28 28 27 26 25 23 21 20 19 20 21 24 26 25 24 24 24 22 22 23 24 26 27 27 28 29 31 32 32 32 31 32 34 34 34 35 35 35 35 35 35 34 34 33 34 36 37
22 20 20 21 21 20 19 18 16 15 13 12 13 13 13 12 12 12 13 14 13 10 10 11 12 13 15 17 19 20 21 23 25 26 27 30 32 32 31 30 29 28 28 25 22 21 21 20 20 22 26 26 24 24 24 23 22 23 25 27 27 27 28 29 31 33 34 34 33 33 35 36 36 36 36 35 34 34 34 34 34 34 35 36 37
23 22 22 22 20 20 20 20 18 16 15 15 16 16 16 15 16 16 17 18 17 14 14 15 14 14 14 15 18 20 21 24 26 27 29 31 33 34 34 33 32 31 30 28 24 23 23 21 20 23 27 28 27 26 25 25 25 25 27 28 28 28 29 30 32 34 35 35 34 34 35 37 37 36 35 35 35 35 35 35 35 35 36 36 36
24 23 23 22 21 21 21 21 20 19 19 19 20 20 20 20 20 20 21 22 21 20 20 19 18 17 17 17 19 19 20 23 26 27 30 32 34 36 36 35 34 33 32 30 27 26 26 23 21 24 27 29 30 29 28 28 28 28 30 31 31 31 31 32 33 34 35 35 35 35 36 37 36 36 35 36 37 38 38 37 37 37 37 37 38
24 24 24 23 22 22 23 23 23 22 22 22 22 23 24 24 24 25 26 26 26 25 25 24 23 22 22 22 22 20 21 23 24 27 30 32 35 37 37 37 36 35 34 32 29 29 28 25 24 26 28 30 31 31 30 30 31 32 33 34 34 34 34 35 36 36 36 36 36 36 36 36 36 36 36 37 38 39 40 39 40 40 40 39 40
26 26 26 25 24 24 25 25 25 25 25 25 26 26 26 27 28 29 29 29 29 29 29 29 28 28 28 27 25 24 24 25 26 27 29 32 35 37 38 38 38 37 36 35 33 32 30 28 27 29 30 31 33 33 33 33 33 34 35 36 37 37 37 38 38 38 38 37 37 37 37 37 37 37 37 38 39 40 40 40 40 41 40 40 40
27 27 27 27 27 27 27 27 27 28 29 29 29 28 29 30 32 32 32 32 31 31 32 33 33 34 34 32 30 29 29 29 29 30 30 32 35 37 38 39 39 39 38 37 36 35 33 31 30 30 31 33 34 34 35 35 35 37 37 38 39 39 39 40 40 40 40 39 38 38 38 38 38 38 38 39 40 40 41 41 41 40 40 41 42
27 29 31 32 32 32 31 30 30 30 31 31 32 32 32 34 35 35 35 35 34 34 35 36 37 37 38 37 36 34 34 33 33 33 34 34 36 38 40 40 40 40 39 39 39 38 35 33 32 32 33 34 35 36 36 36 37 38 39 40 40 41 41 41 41 42 42 41 40 39 39 39 39 39 39 40 41 41 42 42 42 40 40 42 43
28 32 37 37 36 35 34 34 34 33 33 34 35 35 36 37 38 38 38 38 37 37 38 38 39 40 41 41 40 40 39 38 37 37 38 38 39 40 41 42 41 41 41 42 42 41 38 35 34 34 35 36 36 37 38 38 39 40 40 41 42 42 42 43 43 43 43 43 41 40 40 40 40 40 40 40 41 42 43 43 42 41 41 42 43
31 34 38 38 37 37 37 38 38 38 37 38 40 40 40 40 40 40 40 40 41 40 40 40 41 41 42 43 43 43 42 41 41 42 42 43 43 44 44 43 43 43 44 45 45 43 39 37 36 36 37 38 38 39 40 40 40 41 42 42 43 43 44 44 43 44 44 43 42 41 40 41 41 41 41 41 41 42 43 43 41 40 41 43 45
33 34 36 36 37 37 35 35 35 35 34 35 38 40 42 43 44 43 41 41 41 41 41 41 41 40 40 40 42 43 43 44 45 45 46 48 48 48 47 46 44 45 47 48 47 44 41 39 39 38 39 40 40 41 42 42 42 42 43 44 44 45 45 45 44 44 44 43 42 41 40 41 41 41 41 41 42 42 43 42 41 40 41 43 45
36 36 36 36 36 35 33 32 32 32 32 33 33 34 36 39 42 42 42 41 42 42 42 42 42 41 39 39 41 42 42 44 45 46 49 53 53 52 50 48 47 47 49 50 50 47 44 43 42 41 41 43 44 44 45 45 44 43 44 44 45 45 45 44 43 44 44 43 42 41 40 41 41 41 41 42 42 42 42 41 40 39 40 41 41
35 36 36 35 35 34 33 33 34 34 34 35 35 35 36 38 40 42 43 44 44 44 44 45 44 43 42 42 42 42 42 44 46 48 51 55 57 56 54 52 50 49 50 52 52 51 48 46 46 46 45 46 47 47 47 47 47 45 45 44 44 44 44 44 44 44 44 43 41 40 40 41 41 41 41 42 42 42 41 39 38 37 37 37 36
33 34 34 35 35 36 37 37 37 37 36 37 38 39 41 43 44 46 47 48 48 47 47 47 48 48 48 48 47 46 46 47 48 50 53 57 59 59 58 57 54 52 52 53 54 54 52 50 50 50 49 49 51 51 50 49 49 48 47 44 43 43 43 44 44 44 44 43 41 40 40 41 41 42 41 42 42 41 39 37 35 34 33 33 33
37 37 38 38 39 40 40 40 40 39 40 41 42 43 45 46 48 49 50 51 50 50 49 49 49 51 52 52 51 50 50 50 50 52 55 57 59 61 62 60 58 56 56 54 53 54 55 54 54 54 53 52 55 55 53 51 51 51 49 44 42 43 44 44 44 44 44 42 40 39 40 41 41 41 41 42 42 40 36 34 32 31 30 30 31
41 41 41 42 42 42 42 42 42 42 42 43 44 45 47 48 50 50 51 51 51 51 52 51 51 52 53 53 54 54 53 53 54 54 56 58 59 60 61 61 59 58 59 58 54 53 54 56 58 58 56 57 59 58 54 52 52 53 51 47 44 43 44 44 44 44 43 41 40 39 40 41 41 40 41 42 41 37 33 31 30 29 28 28 29
45 45 45 45 44 44 44 43 43 43 43 44 45 46 47 49 50 51 52 52 53 53 54 54 54 55 55 55 56 56 56 57 57 57 57 59 60 61 62 63 62 62 62 61 58 56 56 59 62 61 59 61 61 57 53 53 53 53 52 50 46 43 43 44 44 43 42 41 39 39 40 40 40 40 40 41 39 34 31 29 28 28 27 27 27
48 47 46 45 44 43 43 42 42 43 44 45 47 48 50 51 52 53 53 54 56 56 57 58 58 58 58 57 57 58 59 59 59 60 61 62 65 66 66 65 66 67 66 63 61 62 62 63 63 63 64 64 59 54 51 51 52 53 54 52 47 42 42 44 44 43 42 40 39 39 39 39 39 40 40 40 37 31 29 28 27 26 25 25 25
46 44 43 43 43 43 43 44 45 45 46 48 50 51 53 54 55 56 56 57 58 59 60 61 62 62 63 62 61 60 60 60 61 64 66 67 68 70 70 67 65 68 68 65 63 65 67 67 65 65 68 66 59 52 50 50 50 52 53 52 48 43 42 43 43 42 41 40 39 39 39 39 39 39 39 38 34 29 27 26 25 24 23 23 24
42 42 42 43 44 45 46 47 48 48 49 51 51 53 54 55 57 58 58 58 59 61 62 63 63 63 64 64 65 65 64 64 64 66 67 66 66 69 72 71 68 68 68 67 67 68 69 68 67 67 69 68 62 56 53 52 53 53 53 52 48 43 41 42 43 42 41 39 38 38 38 38 38 39 39 36 31 27 26 24 23 22 22 23 25
43 44 45 46 48 49 50 51 51 52 52 52 52 53 54 55 57 58 59 59 61 63 64 65 64 64 65 66 68 69 69 69 69 69 69 68 67 69 73 73 71 71 70 69 71 72 70 66 65 66 67 66 62 60 57 54 54 56 56 52 46 41 39 41 42 41 40 38 37 37 37 37 38 38 38 35 29 26 24 22 21 20 21 23 25
46 47 49 50 52 52 52 53 53 53 53 52 52 53 54 55 57 58 59 60 62 63 65 67 67 67 68 69 71 73 73 73 73 73 72 71 71 73 76 75 74 73 71 69 69 70 68 63 61 62 63 57 52 53 55 54 54 56 54 48 42 39 39 40 41 40 39 38 37 36 36 36 37 37 36 33 27 24 22 20 19 20 21 23 25
49 51 52 53 53 53 52 52 53 53 52 52 53 54 55 56 57 57 58 59 61 63 66 68 69 70 72 73 74 76 79 80 79 77 76 76 76 77 78 77 74 73 71 68 66 65 64 62 62 65 64 55 47 48 51 52 53 53 49 43 39 38 39 40 40 39 39 37 36 36 35 36 36 36 35 31 25 22 20 19 18 19 21 23 25
52 53 54 54 54 53 53 53 52 52 51 52 53 53 54 55 56 57 57 58 60 64 66 67 70 73 74 74 76 80 83 85 83 80 79 80 82 81 80 78 72 67 63 62 61 61 60 58 60 63 60 52 48 51 52 51 52 51 46 41 39 38 39 39 39 39 38 36 35 35 35 35 36 35 33 29 24 21 19 18 18 19 20 22 24
53 54 54 55 56 56 55 54 53 51 51 51 51 52 53 53 54 56 57 57 60 64 66 67 69 70 71 74 78 81 85 91 93 89 83 81 81 80 80 80 77 69 62 57 56 57 56 53 54 55 52 48 51 54 51 51 52 49 42 38 38 38 38 38 38 38 37 35 34 34 35 35 35 35 32 27 22 20 18 17 18 19 20 22 23
53 53 53 54 55 55 54 53 52 51 50 50 50 50 50 50 52 55 56 56 59 64 66 66 66 67 68 68 64 62 64 67 69 75 76 76 78 75 72 75 78 76 70 63 57 56 55 55 55 55 49 45 47 49 48 48 49 45 39 37 37 38 38 37 37 38 36 34 33 34 34 34 34 34 31 26 21 19 17 17 17 19 20 21 23
53 53 53 53 53 53 53 53 52 51 49 48 48 48 49 50 52 54 55 55 57 61 64 64 64 64 63 57 52 53 54 41 23 42 55 64 71 72 72 76 78 75 70 67 64 62 59 55 53 52 48 44 45 49 51 51 48 43 39 37 37 37 37 37 37 36 34 33 33 34 34 34 34 33 30 25 20 18 17 16 17 18 19 21 22
52 52 52 52 52 52 52 51 50 49 48 47 47 48 49 50 52 53 54 53 54 57 61 61 60 58 56 52 53 60 56 35 13 30 47 57 61 63 69 75 74 69 66 66 63 58 52 47 44 46 48 48 48 48 50 50 46 41 38 37 37 37 37 37 36 35 33 32 33 34 34 34 33 32 29 24 20 17 16 16 17 18 19 21 21
50 50 50 50 50 50 50 49 49 48 48 47 48 49 50 51 52 52 51 50 51 53 55 54 53 52 49 47 49 51 45 31 21 23 36 49 56 59 63 63 58 53 54 56 54 48 43 42 41 42 45 48 48 46 44 44 42 39 37 37 37 37 37 36 35 33 32 32 33 34 34 33 33 31 28 24 19 17 16 16 17 18 19 20 20
50 49 49 49 48 48 48 47 47 47 47 47 48 49 50 50 51 51 50 49 50 51 49 46 45 44 40 37 37 36 30 22 17 19 25 36 45 50 52 52 47 41 41 44 46 44 44 46 47 45 44 46 46 43 40 39 38 36 36 38 38 37 36 35 33 32 31 32 33 34 33 33 32 30 27 23 20 17 16 17 18 19 19 20 19
51 51 50 49 48 47 46 45 45 45 45 45 46 47 49 49 49 50 50 48 49 50 47 41 39 39 35 29 25 23 19 16 15 17 21 26 31 34 37 40 40 40 41 45 46 46 46 46 45 43 41 40 39 37 36 36 36 36 37 38 38 37 35 33 32 31 31 33 33 33 33 33 31 30 27 24 20 18 17 18 19 19 20 19 18
52 51 49 48 47 47 46 45 45 45 45 46 46 47 48 49 49 49 49 47 48 49 46 40 35 34 32 27 22 19 16 16 15 14 15 17 20 23 26 28 30 33 39 44 44 41 37 34 33 33 35 36 36 37 36 35 35 36 37 37 37 36 34 32 31 31 32 33 34 33 33 32 31 29 27 24 21 19 18 19 19 20 20 19 18
52 50 49 47 47 47 47 46 47 47 48 49 49 49 49 49 49 48 47 46 46 47 44 38 34 31 27 24 21 18 17 17 17 16 14 14 14 15 17 20 22 24 28 32 33 32 31 30 30 32 34 35 37 37 36 35 35 37 38 38 37 35 32 31 31 31 32 33 33 33 33 32 30 28 27 25 22 20 20 20 20 20 20 19 18
51 51 50 49 48 48 48 48 48 49 49 49 49 49 50 50 49 48 46 45 45 45 40 35 32 30 27 23 21 19 18 18 19 19 18 18 18 17 17 18 19 21 24 27 29 30 31 32 32 33 34 35 36 36 35 35 36 38 38 37 36 34 32 32 31 31 32 33 33 33 32 31 29 28 27 25 23 22 21 21 21 21 20 19 19
49 50 50 50 49 49 49 49 48 47 47 47 47 48 49 49 48 47 46 45 44 43 39 34 31 30 30 27 25 23 22 21 21 21 21 21 21 21 21 22 23 24 26 29 30 32 33 34 34 35 36 36 35 35 36 37 38 38 38 37 36 35 34 33 31 31 32 33 33 32 31 30 29 28 27 26 24 23 22 22 23 23 21 21 21
46 46 47 47 47 46 46 45 44 43 43 43 44 45 47 47 46 45 45 44 42 40 39 36 33 30 30 30 29 28 27 26 26 25 24 23 22 22 23 24 26 27 29 31 32 32 33 34 35 35 35 35 35 37 38 38 38 38 38 37 37 36 34 32 31 31 32 32 32 32 31 29 28 28 27 27 26 24 23 24 24 24 23 22 22
42 42 42 42 42 41 40 40 40 39 39 40 41 42 44 45 45 44 42 41 40 39 38 37 34 31 29 29 28 27 27 27 28 28 28 27 27 27 27 27 28 28 29 30 31 31 32 33 33 34 34 35 36 37 37 36 36 37 37 37 36 35 33 31 31 31 32 32 32 32 30 29 29 28 28 27 27 25 25 25 25 25 24 24 24
39 39 39 39 39 38 38 38 38 38 38 38 38 39 40 41 43 43 42 40 39 38 37 35 33 31 29 27 25 25 25 25 26 27 28 28 28 28 28 29 30 31 31 31 30 31 31 31 32 33 34 35 35 35 35 35 36 36 35 35 35 34 32 31 30 31 31 32 32 32 30 30 29 28 28 28 28 27 27 26 26 26 26 25 26
37 37 37 38 38 37 37 38 37 37 37 37 37 37 36 36 37 38 38 38 38 38 36 34 31 29 26 25 23 23 23 23 23 23 23 24 25 26 28 30 31 32 32 32 32 32 33 33 34 34 35 35 35 34 34 34 34 34 34 34 34 32 31 30 31 31 32 32 32 31 31 30 29 29 29 29 28 28 28 28 27 27 27 27 27
37 37 37 37 37 38 38 38 38 37 37 37 36 36 35 34 34 33 33 34 35 35 34 33 31 29 26 24 22 23 24 25 24 24 23 24 24 26 27 28 29 30 31 32 32 33 34 34 35 35 34 34 33 33 32 33 33 33 34 33 33 32 31 31 31 31 32 32 32 31 31 31 30 29 29 29 29 30 29 29 28 28 28 28 29
Wind_Direction
238 237 236 238 242 246 249 249 247 245 243 242 241 241 242 245 246 248 250 252 255 257 260 265 271 273 266 257 253 252 249 251 256 258 260 266 269 275 290 299 310 328 343 352 352 351 354 356 0 6 12 17 15 11 6 357 352 347 340 334 330 328 327 326 326 324 320 313 308 308 311 311 309 307 306 307 308 309 309 309 307 303 301 298 296
241 239 236 236 241 245 248 249 248 248 247 245 244 244 244 246 248 249 251 252 254 257 260 264 270 271 263 254 250 249 247 249 254 255 258 263 267 271 281 289 304 324 337 345 346 344 342 343 345 349 354 358 352 345 339 332 330 330 331 328 323 321 321 319 318 318 316 311 307 307 308 310 309 307 305 305 305 305 306 306 304 302 301 298 295
241 238 236 236 241 245 247 248 250 249 248 247 245 245 246 248 250 252 252 253 255 258 262 266 270 269 259 251 249 248 245 246 250 252 255 259 263 267 274 285 299 314 326 334 336 335 332 327 326 328 330 332 331 327 324 321 322 325 328 328 323 319 318 318 317 315 314 312 309 308 308 309 308 305 303 303 302 302 302 302 301 300 299 297 296
241 237 235 238 242 246 249 251 252 251 250 248 246 246 246 248 250 252 253 255 257 259 263 267 270 267 257 249 247 246 243 243 246 249 251 255 260 264 271 282 294 304 315 322 325 325 322 320 319 317 316 318 320 321 320 318 320 323 325 327 325 322 320 320 319 317 316 315 312 309 307 307 305 303 302 302 302 301 301 300 298 297 295 295 294
243 238 234 237 242 248 253 254 254 252 249 247 246 246 247 248 250 252 254 256 258 260 263 266 267 263 255 248 243 242 242 243 244 247 249 253 257 262 270 280 289 298 307 313 315 316 315 316 319 323 324 323 319 316 315 315 317 320 323 326 325 323 322 321 319 319 319 319 317 313 309 306 303 301 302 304 304 302 301 299 297 296 295 295 293
242 240 236 237 241 248 253 254 253 250 247 246 245 246 248 249 251 253 256 257 259 261 263 264 263 259 252 245 240 240 243 245 246 247 248 251 255 260 268 276 284 294 303 307 308 311 313 317 325 333 334 328 319 311 307 305 308 312 317 323 324 321 321 319 317 317 318 319 319 316 312 309 305 303 305 308 307 304 302 299 296 294 293 293 290
241 240 239 238 241 247 251 251 249 246 245 244 244 245 247 249 251 253 256 259 261 263 263 262 260 255 249 243 240 241 245 247 250 249 249 251 254 259 265 273 280 288 298 303 306 311 315 322 333 337 334 328 320 311 307 304 306 312 314 316 320 320 317 317 314 313 315 315 316 316 314 310 306 305 308 311 310 307 304 300 296 294 293 291 290
240 241 239 239 242 246 246 245 245 244 244 244 245 247 248 250 252 253 256 259 262 263 261 259 257 254 249 244 242 245 249 253 255 253 252 253 254 257 262 270 276 282 291 298 304 312 318 326 333 333 331 329 323 314 311 309 310 318 321 319 319 318 315 313 312 310 311 311 310 312 312 309 306 306 311 314 314 312 307 301 297 294 294 294 293
238 238 237 237 239 241 240 241 242 243 244 244 243 244 245 248 251 253 256 260 262 261 258 255 255 255 254 250 247 249 254 259 260 256 253 254 255 256 259 267 273 277 285 293 301 310 319 326 329 329 332 335 329 318 317 320 320 325 331 329 324 319 314 311 310 309 309 308 308 309 309 307 306 308 313 316 316 313 308 301 297 294 293 294 295
239 237 236 236 237 238 238 239 241 242 241 240 238 240 244 249 256 263 267 267 265 263 261 257 254 254 255 255 252 252 256 261 262 258 254 253 255 256 258 263 269 273 280 290 299 308 316 321 324 327 333 339 337 329 328 335 338 337 335 330 323 319 314 311 309 308 308 308 308 308 307 305 305 309 313 315 315 313 308 302 298 296 294 293 292
237 236 234 235 236 237 238 239 240 241 240 243 248 256 264 269 276 280 284 285 279 273 269 264 259 257 257 257 254 253 256 261 263 261 256 253 255 256 257 261 266 271 277 286 296 304 311 315 321 326 329 334 337 333 330 335 340 339 334 327 321 316 312 310 308 307 307 308 309 308 307 305 306 309 313 315 316 314 309 303 299 299 298 295 293
234 232 231 234 236 237 239 238 238 240 242 247 257 266 273 280 289 293 295 292 286 284 284 277 269 264 261 260 258 255 255 259 264 265 259 255 256 257 257 260 264 269 274 282 291 299 304 309 318 323 323 326 331 331 328 330 333 334 331 325 318 312 308 307 306 306 306 308 310 310 308 306 308 311 314 316 318 316 311 306 301 298 296 294 293
230 230 231 235 238 239 239 238 240 243 247 253 259 264 271 281 288 291 290 287 284 286 289 286 282 277 271 265 261 257 254 257 263 265 261 257 257 257 258 260 263 268 272 278 288 294 296 302 312 316 315 319 325 327 327 327 329 329 327 323 318 311 307 305 304 304 306 309 311 312 310 309 310 313 316 318 319 317 314 310 305 299 293 290 290
227 229 232 236 236 236 237 239 241 244 248 253 258 263 268 274 278 280 282 282 283 284 285 283 283 282 280 275 268 262 257 257 260 263 262 259 258 258 259 260 263 267 272 277 285 289 289 294 304 307 308 313 317 320 323 324 325 326 324 322 319 315 310 307 305 305 307 310 312 312 310 310 312 315 318 320 320 318 316 312 307 302 297 291 290
227 229 233 236 236 236 237 238 241 244 248 252 256 261 265 268 270 272 275 277 279 280 280 280 281 282 284 282 277 273 267 262 261 261 261 260 260 260 261 263 265 268 272 276 282 285 286 290 296 299 302 307 310 314 318 321 323 323 321 320 321 319 315 310 308 308 310 311 312 312 310 311 313 316 318 320 320 318 316 314 311 307 303 298 294
229 231 234 236 236 236 236 238 240 242 245 250 255 260 264 266 267 267 268 269 272 273 275 276 278 279 280 279 279 279 276 271 266 263 261 260 260 261 263 265 267 269 272 275 278 282 285 288 291 293 296 301 304 309 313 316 319 320 319 318 320 321 318 313 312 313 312 312 312 312 311 312 314 316 318 319 319 318 315 314 312 310 306 300 296
234 234 235 234 234 234 234 236 239 243 246 250 254 258 261 263 263 262 261 261 263 266 269 270 270 271 272 273 275 277 278 276 273 268 264 262 261 262 264 266 268 269 270 273 276 280 284 286 287 289 293 296 299 304 309 312 314 315 316 316 317 318 318 316 316 315 313 312 313 313 313 313 314 316 317 318 318 317 314 312 311 310 307 302 298
242 243 243 238 234 233 233 233 237 241 246 248 251 253 256 257 257 257 256 255 255 257 259 261 262 263 265 266 268 270 272 273 273 271 268 264 263 263 264 265 267 268 269 271 274 277 281 284 284 286 289 292 296 300 304 307 310 311 312 314 314 315 316 318 318 316 314 314 315 314 314 314 314 316 317 318 318 316 314 313 312 313 312 307 301
247 248 246 242 239 237 234 234 236 240 243 245 246 247 248 250 252 253 253 254 254 254 254 255 257 258 259 260 261 263 265 267 269 270 270 268 265 264 265 266 267 269 269 270 271 274 278 281 282 284 286 289 293 296 299 303 306 307 309 311 311 312 314 317 318 317 315 314 315 315 314 314 314 315 317 318 318 317 316 315 314 313 312 307 302
248 246 243 243 245 242 235 231 234 237 239 241 243 244 245 248 251 254 256 257 258 259 260 260 259 259 258 257 256 256 259 261 264 266 267 267 267 265 265 266 267 269 269 269 269 271 274 278 280 282 284 286 290 293 294 297 301 303 305 308 308 309 312 315 316 317 315 314 315 314 314 313 313 314 316 318 318 318 317 316 314 312 310 306 304
245 244 243 245 250 249 242 237 238 239 240 241 243 245 247 250 253 256 258 259 261 264 266 267 266 264 262 260 257 256 255 256 258 261 263 265 266 265 265 265 266 267 267 268 268 269 271 275 276 278 281 284 286 288 289 291 295 298 301 303 305 307 309 311 314 316 314 313 313 314 313 312 312 313 315 317 318 317 316 315 313 311 308 305 303
246 245 246 248 252 255 255 254 253 254 255 254 253 252 254 256 257 259 262 266 269 270 269 270 272 272 268 266 265 263 259 255 254 256 258 260 261 262 263 264 264 264 265 266 267 269 270 271 272 274 277 280 282 284 285 286 290 294 297 299 302 305 306 308 311 314 312 311 312 312 312 311 311 312 314 315 317 316 314 313 312 309 306 304 303
246 247 248 251 254 257 260 262 263 266 268 268 267 264 263 263 262 263 268 272 275 275 273 273 275 276 273 270 269 269 267 263 259 257 257 258 258 257 258 260 260 261 263 265 267 268 267 267 268 270 273 276 278 280 281 282 285 289 293 296 301 303 302 304 308 311 310 310 310 311 311 310 310 311 312 314 315 315 313 313 311 308 305 304 305
244 246 248 251 255 259 261 263 266 267 266 267 268 267 266 267 268 268 270 271 272 273 274 275 276 277 276 274 272 271 269 267 265 263 261 261 260 257 256 255 255 256 259 261 263 265 265 265 266 267 268 271 274 276 278 280 282 285 289 293 298 300 299 301 306 308 308 308 309 310 310 309 308 309 312 314 315 315 313 312 310 308 307 306 307
246 247 250 253 257 260 263 265 266 266 265 265 267 268 268 270 271 271 272 273 273 272 273 274 276 277 276 273 272 270 269 268 268 267 264 262 262 261 258 254 251 251 253 254 257 260 261 262 263 264 265 267 270 272 275 278 280 282 286 290 294 296 296 299 303 305 306 306 307 308 308 307 307 309 312 313 314 314 312 310 309 309 308 308 308
250 251 253 255 258 261 264 266 267 267 266 266 268 269 269 269 270 271 271 272 273 272 272 272 273 274 273 272 270 269 269 268 268 267 266 266 265 265 264 261 257 252 249 250 253 255 257 259 261 262 263 264 266 269 271 275 278 280 282 287 291 291 293 297 300 303 304 305 306 306 306 305 306 309 312 313 313 311 309 310 311 311 310 310 310
255 256 257 258 261 263 266 267 268 267 266 267 268 268 268 269 270 271 271 272 272 272 271 271 271 271 272 271 269 268 267 266 265 265 266 266 265 265 266 267 265 259 255 253 253 254 255 257 258 260 261 262 264 266 268 272 276 278 280 283 286 288 291 295 298 301 303 303 304 304 304 304 306 309 311 312 310 308 309 312 314 314 312 312 312
258 260 262 263 265 266 266 266 266 266 267 267 268 268 269 269 270 271 272 273 273 273 272 273 273 273 272 270 269 268 267 265 264 264 265 265 265 265 264 264 263 261 259 257 255 254 254 254 255 256 258 260 262 265 267 269 273 275 278 281 283 285 288 292 296 299 301 301 301 302 302 303 306 308 310 309 307 307 311 315 317 316 314 313 314
259 261 263 264 264 265 266 267 267 268 268 268 269 270 270 270 270 271 272 273 273 274 274 274 274 273 272 270 268 267 267 266 266 266 265 264 263 262 261 259 258 257 255 254 253 253 253 253 254 255 256 256 259 264 266 267 270 273 275 279 282 284 286 290 295 297 298 299 300 300 302 303 305 308 309 307 305 308 314 317 317 315 314 315 318
258 259 260 261 263 265 266 267 268 268 268 268 268 268 269 269 270 270 270 271 273 273 273 273 273 273 272 271 269 267 265 264 264 264 263 262 262 261 260 259 258 258 256 253 251 252 252 252 251 252 254 254 257 261 264 265 268 271 273 277 281 283 284 288 293 296 296 297 298 299 301 303 305 307 306 304 304 310 315 316 315 314 315 318 322
259 261 262 263 265 267 268 269 270 269 269 269 268 267 268 268 269 269 270 270 271 271 272 272 271 271 271 271 270 268 264 262 261 261 262 263 263 263 262 260 257 258 260 258 254 252 252 252 250 251 254 255 257 260 264 267 268 268 271 275 278 280 282 287 292 293 293 295 297 298 300 302 304 304 304 303 305 310 314 313 313 314 317 321 324
263 266 267 269 270 272 272 273 272 272 272 271 269 269 269 268 269 270 271 271 272 272 272 272 272 272 272 271 271 269 267 265 262 259 259 260 260 261 262 261 259 257 260 261 256 250 249 250 251 252 255 260 264 263 263 267 268 265 268 275 278 277 281 287 290 291 291 293 295 297 298 300 302 302 302 302 304 309 311 311 311 315 319 323 324
266 268 270 271 272 272 273 273 273 273 272 271 270 270 269 269 270 271 272 273 273 272 273 274 274 274 274 275 276 275 273 269 264 260 257 256 257 257 258 259 260 259 260 261 257 250 247 247 249 251 254 262 270 267 262 266 270 265 267 276 280 277 280 286 287 288 290 291 293 295 297 299 300 301 300 300 303 307 308 308 311 316 320 322 322
267 269 270 270 270 270 272 273 273 272 270 270 271 271 270 270 270 270 271 271 272 273 274 275 276 277 278 278 278 276 274 271 267 263 259 255 253 253 254 257 259 258 259 260 257 251 247 246 249 253 255 259 272 276 269 268 269 266 267 275 278 276 280 285 285 286 288 289 291 294 296 297 299 300 298 297 299 303 305 306 311 317 320 321 321
269 270 270 269 269 270 272 274 274 272 271 271 272 271 271 271 270 270 271 271 272 273 274 274 277 279 279 280 281 280 277 273 267 262 258 253 250 249 249 251 254 255 257 260 258 253 251 250 252 256 257 258 271 280 274 264 264 266 268 272 273 274 279 282 283 284 285 287 290 293 294 296 298 297 295 294 295 299 302 306 311 316 318 319 319
270 271 270 269 270 271 273 275 275 273 272 272 272 272 272 272 271 272 273 274 275 276 275 276 279 279 280 283 283 281 281 277 268 259 253 249 248 249 248 247 247 248 252 258 257 252 252 254 256 257 257 260 270 275 269 261 262 267 269 269 269 274 278 279 280 281 283 286 290 291 292 294 295 294 292 290 292 296 301 306 310 314 315 316 317
269 270 269 269 269 270 272 273 274 273 272 272 272 272 272 273 273 275 276 277 279 280 280 282 283 283 286 287 281 280 290 289 269 252 246 244 243 245 247 248 247 247 248 251 252 252 256 261 260 256 255 260 267 267 262 260 264 268 268 267 269 273 276 276 277 279 281 285 288 289 290 292 292 291 289 287 289 295 300 304 308 310 311 314 316
267 268 268 268 268 269 270 271 271 271 270 270 270 270 272 273 275 277 278 279 281 282 284 286 288 289 294 293 283 288 308 315 261 225 232 239 239 239 243 246 249 249 248 247 249 254 260 262 259 252 251 258 265 263 260 262 265 264 263 265 268 271 273 273 274 277 281 284 286 287 289 290 290 289 286 284 286 292 296 300 304 306 308 311 315
267 266 267 267 268 268 269 269 269 268 268 267 268 269 271 273 275 277 278 280 281 283 285 288 292 294 297 298 293 294 304 311 263 218 224 230 234 238 241 246 250 251 249 247 249 252 254 254 255 254 254 259 265 265 263 261 260 258 259 264 267 269 270 271 273 276 279 282 283 285 287 288 288 286 283 281 284 289 291 294 299 302 305 308 312
266 265 266 266 267 268 268 268 268 268 268 268 268 269 270 272 275 277 279 280 282 284 286 291 296 297 298 299 298 296 295 295 285 255 235 228 227 230 236 243 249 250 246 244 243 244 246 252 258 259 258 259 262 264 262 258 254 254 258 263 265 267 268 269 271 275 278 280 282 284 285 286 286 284 281 279 280 284 287 291 295 298 301 304 308
265 265 266 266 266 267 268 267 267 268 268 269 269 270 271 273 275 277 279 281 282 284 288 294 297 296 297 300 299 295 286 272 267 266 253 238 232 234 239 246 250 247 239 235 236 243 254 261 262 261 258 258 261 262 261 257 253 254 259 263 265 266 267 268 271 275 278 280 282 283 283 284 283 282 278 276 277 280 283 287 290 293 296 300 304
266 266 266 266 266 266 266 266 267 268 269 270 271 271 272 274 276 277 279 280 281 282 287 292 294 293 295 299 300 294 279 256 248 257 260 251 247 249 254 254 252 247 240 238 244 254 263 265 262 259 256 257 261 264 261 256 255 258 262 264 265 265 266 267 271 274 277 279 280 281 281 281 281 279 276 274 275 277 280 282 285 288 292 296 301
266 265 265 265 265 265 265 266 268 270 271 272 272 272 273 275 276 277 277 278 279 281 284 288 291 291 290 292 295 294 284 273 266 264 262 259 258 257 254 251 251 250 247 246 251 258 261 261 259 257 256 259 263 264 259 256 258 263 265 264 264 264 265 266 270 274 276 277 278 279 279 279 278 276 274 273 273 274 276 278 281 284 288 292 296
266 264 263 263 264 264 265 267 269 271 272 273 272 271 272 274 275 276 275 275 276 279 282 285 287 287 286 285 286 286 284 281 278 274 270 268 266 262 255 251 249 249 249 250 252 257 261 263 262 261 262 263 263 260 257 258 262 265 265 263 263 262 262 265 269 272 274 275 276 276 277 276 276 274 273 272 271 271 272 275 278 280 284 287 291
266 264 263 264 265 266 267 269 270 271 272 271 271 270 271 272 273 273 273 273 273 275 279 281 282 283 283 282 279 276 272 269 268 266 264 262 261 261 260 257 254 253 256 257 258 261 264 265 263 263 263 262 259 257 258 261 263 264 263 261 260 259 261 264 268 270 272 274 274 274 274 274 274 273 272 271 270 270 271 273 275 277 280 283 286
266 264 263 264 266 267 269 270 271 271 270 270 270 270 270 272 272 272 272 272 272 272 274 277 277 278 278 279 278 275 271 267 263 262 261 261 262 262 262 261 261 260 260 260 261 262 262 261 261 261 261 259 257 256 258 260 262 261 259 257 257 258 262 265 267 268 270 272 273 272 272 272 272 271 270 270 270 270 271 273 273 274 276 279 283
264 264 263 263 264 266 267 268 269 270 270 270 270 270 270 270 271 271 270 269 268 269 271 274 275 275 275 277 278 277 275 271 269 267 266 266 266 267 266 265 263 261 259 259 260 260 260 261 261 260 258 257 256 256 256 257 256 255 255 255 257 260 263 264 265 267 269 270 270 270 270 270 269 269 269 270 270 270 271 272 272 273 274 277 280
265 265 265 265 265 266 267 268 268 269 270 271 271 270 268 267 267 267 267 266 266 268 271 275 277 278 276 275 275 277 277 275 273 271 270 269 268 267 265 262 260 258 257 257 257 258 259 260 259 257 257 257 257 257 257 256 255 255 256 258 260 261 262 262 264 267 268 268 268 268 267 267 267 268 268 269 270 270 271 272 272 272 273 275 278
267 268 269 269 269 269 269 270 270 270 271 271 271 271 269 266 264 263 263 264 265 267 271 275 279 281 280 278 276 276 278 279 277 274 270 267 265 264 263 261 260 258 257 256 257 258 258 258 258 259 259 260 261 261 260 258 258 258 259 259 260 260 260 261 264 266 266 266 265 265 264 265 265 266 267 268 269 270 271 272 272 272 273 274 277
268 270 270 271 271 271 271 270 271 271 271 271 271 272 271 270 268 266 265 265 267 269 271 274 275 276 280 283 284 281 278 277 276 273 269 265 263 263 263 262 260 260 259 259 258 259 259 260 261 262 262 262 262 261 259 258 258 258 258 258 258 258 258 260 264 265 264 263 262 262 262 262 262 264 265 267 268 269 270 271 272 273 273 274 276
269 270 270 270 271 271 270 270 269 269 269 269 269 270 271 271 272 272 272 271 270 270 271 272 273 273 276 278 276 272 273 276 276 272 269 267 266 265 264 262 262 262 262 261 261 261 261 261 260 260 260 259 258 256 255 255 255 255 255 254 254 255 257 260 262 262 261 261 260 260 260 260 261 262 264 266 267 268 270 271 272 273 273 274 276
Height
5900 5901 5903 5904 5905 5907 5908 5908 5909 5910 5910 5912 5913 5913 5914 5915 5916 5916 5917 5918 5919 5920 5921 5922 5922 5923 5923 5924 5924 5924 5925 5926 5926 5927 5927 5927 5927 5926 5926 5925 5925 5924 5923 5922 5921 5920 5919 5917 5916 5915 5914 5913 5912 5911 5910 5909 5908 5908 5907 5907 5906 5905 5904 5904 5903 5902 5901 5899 5898 5896 5895 5894 5894 5893 5891 5890 5889 5887 5886 5885 5883 5882 5881 5880 5879
5898 5899 5900 5901 5903 5904 5905 5905 5906 5907 5908 5910 5910 5911 5911 5912 5913 5913 5915 5916 5917 5918 5919 5919 5920 5921 5921 5922 5922 5922 5923 5924 5925 5925 5925 5925 5925 5925 5925 5924 5924 5923 5922 5921 5920 5919 5917 5916 5915 5914 5913 5912 5910 5909 5909 5908 5907 5906 5906 5905 5904 5904 5903 5902 5901 5900 5899 5898 5896 5894 5893 5892 5891 5890 5889 5887 5886 5884 5883 5881 5879 5878 5877 5876 5875
5896 5896 5897 5899 5900 5901 5902 5903 5904 5905 5906 5907 5908 5908 5909 5909 5910 5911 5912 5913 5914 5916 5916 5917 5918 5918 5919 5920 5920 5920 5921 5922 5923 5923 5923 5923 5923 5923 5923 5923 5923 5922 5921 5920 5919 5917 5916 5915 5914 5913 5912 5911 5910 5909 5908 5907 5906 5905 5905 5904 5903 5902 5901 5899 5898 5897 5897 5896 5894 5893 5891 5889 5888 5886 5885 5884 5882 5880 5879 5877 5875 5874 5873 5872 5871
5893 5894 5895 5896 5897 5898 5899 5900 5901 5902 5903 5904 5905 5905 5906 5907 5907 5908 5909 5910 5912 5913 5913 5914 5915 5916 5917 5917 5918 5918 5919 5920 5920 5921 5921 5922 5922 5922 5922 5921 5921 5920 5920 5918 5917 5916 5914 5913 5913 5912 5912 5911 5910 5909 5908 5907 5906 5905 5904 5902 5901 5900 5899 5897 5896 5894 5893 5893 5892 5890 5888 5886 5885 5883 5882 5880 5879 5877 5876 5874 5872 5870 5869 5869 5868
5890 5892 5893 5894 5895 5896 5897 5898 5899 5899 5900 5901 5902 5902 5903 5904 5904 5905 5906 5907 5909 5910 5910 5911 5912 5913 5914 5915 5915 5915 5916 5917 5918 5918 5919 5919 5919 5919 5919 5919 5919 5918 5918 5916 5915 5914 5913 5912 5912 5912 5912 5911 5910 5909 5908 5906 5905 5904 5902 5901 5900 5898 5897 5895 5893 5891 5890 5888 5888 5887 5885 5884 5882 5880 5879 5877 5876 5874 5873 5871 5868 5866 5865 5864 5864
5887 5889 5890 5891 5892 5893 5894 5895 5896 5896 5897 5898 5898 5899 5900 5901 5902 5903 5903 5904 5905 5906 5907 5908 5909 5910 5911 5911 5912 5913 5914 5915 5915 5916 5916 5917 5917 5917 5917 5917 5916 5916 5915 5914 5913 5912 5912 5912 5912 5912 5911 5910 5909 5907 5906 5905 5903 5902 5901 5900 5898 5897 5895 5893 5891 5889 5887 5885 5884 5883 5882 5880 5878 5877 5876 5874 5873 5871 5869 5867 5865 5862 5860 5860 5858
5884 5886 5887 5889 5890 5891 5891 5892 5893 5893 5894 5895 5895 5896 5897 5898 5899 5900 5900 5901 5902 5903 5904 5905 5906 5907 5908 5909 5909 5910 5911 5912 5913 5913 5913 5914 5914 5914 5914 5914 5914 5913 5912 5911 5910 5911 5911 5911 5911 5910 5909 5907 5906 5905 5904 5903 5902 5900 5899 5898 5896 5895 5893 5892 5890 5887 5885 5883 5881 5879 5878 5876 5875 5873 5872 5870 5869 5867 5865 5864 5861 5858 5856 5855 5854
5881 5883 5885 5886 5887 5888 5889 5889 5890 5890 5891 5892 5893 5894 5894 5895 5896 5897 5898 5898 5899 5900 5901 5902 5903 5904 5905 5906 5907 5907 5909 5910 5910 5911 5911 5911 5911 5912 5911 5911 5911 5910 5909 5908 5908 5909 5910 5910 5909 5908 5906 5904 5903 5902 5901 5900 5899 5898 5896 5895 5894 5893 5891 5890 5888 5885 5883 5881 5878 5876 5874 5873 5870 5868 5867 5865 5864 5862 5861 5859 5857 5854 5852 5850 5848
5879 5880 5882 5884 5885 5885 5886 5886 5887 5888 5889 5890 5891 5891 5892 5893 5894 5894 5895 5896 5897 5897 5898 5899 5900 5901 5903 5903 5904 5905 5906 5908 5908 5908 5908 5908 5908 5908 5908 5908 5908 5907 5907 5906 5907 5908 5908 5908 5906 5905 5904 5902 5900 5899 5898 5898 5896 5896 5894 5893 5892 5890 5888 5886 5884 5882 5881 5878 5876 5874 5872 5869 5866 5864 5862 5860 5858 5857 5855 5854 5852 5850 5848 5846 5843
5876 5878 5880 5882 5883 5882 5883 5884 5885 5886 5887 5888 5889 5889 5890 5891 5892 5892 5893 5894 5894 5895 5895 5897 5898 5899 5899 5900 5902 5903 5904 5906 5906 5906 5906 5905 5905 5905 5905 5905 5905 5904 5904 5904 5905 5906 5906 5905 5904 5902 5902 5900 5898 5897 5897 5895 5894 5893 5892 5891 5889 5887 5885 5883 5881 5879 5877 5875 5873 5871 5869 5866 5863 5860 5858 5856 5853 5852 5850 5849 5847 5845 5843 5842 5839
5874 5876 5878 5879 5879 5879 5880 5882 5883 5884 5885 5886 5887 5887 5888 5889 5890 5891 5891 5892 5892 5893 5893 5894 5895 5896 5897 5897 5898 5900 5902 5903 5903 5903 5903 5902 5902 5902 5902 5902 5901 5901 5901 5902 5903 5903 5903 5902 5901 5900 5899 5898 5897 5896 5895 5893 5892 5890 5889 5888 5886 5884 5882 5879 5877 5875 5874 5872 5870 5868 5865 5863 5859 5856 5854 5851 5849 5847 5845 5844 5842 5841 5839 5837 5834
5872 5874 5876 5876 5876 5877 5878 5880 5881 5882 5883 5884 5884 5885 5886 5887 5888 5889 5890 5890 5890 5891 5891 5892 5893 5893 5894 5894 5895 5897 5898 5899 5899 5899 5899 5899 5898 5899 5899 5898 5898 5898 5899 5900 5900 5900 5900 5899 5898 5897 5896 5895 5895 5894 5893 5891 5889 5888 5886 5884 5882 5880 5878 5876 5874 5872 5870 5868 5867 5864 5862 5859 5856 5853 5850 5847 5845 5843 5841 5839 5838 5836 5835 5833 5830
5869 5871 5872 5873 5873 5875 5876 5877 5878 5879 5880 5881 5882 5882 5883 5884 5886 5886 5887 5888 5888 5889 5890 5890 5890 5891 5891 5892 5892 5893 5895 5895 5896 5896 5896 5895 5894 5895 5895 5895 5895 5895 5895 5896 5897 5897 5896 5896 5895 5894 5893 5892 5892 5891 5890 5889 5887 5885 5883 5881 5879 5877 5875 5873 5871 5869 5867 5865 5863 5861 5858 5855 5852 5849 5846 5843 5841 5839 5837 5835 5833 5831 5830 5829 5826
5866 5867 5869 5870 5871 5872 5873 5874 5876 5877 5878 5878 5879 5879 5881 5882 5883 5884 5885 5885 5886 5887 5887 5887 5888 5888 5889 5889 5889 5890 5891 5892 5892 5892 5892 5891 5890 5890 5891 5891 5891 5892 5892 5893 5894 5894 5893 5892 5892 5891 5890 5889 5888 5888 5887 5885 5884 5882 5880 5878 5877 5874 5872 5870 5868 5866 5864 5861 5859 5857 5854 5851 5848 5845 5842 5839 5837 5835 5833 5831 5830 5827 5826 5824 5822
5862 5864 5865 5867 5868 5869 5870 5872 5873 5874 5875 5875 5876 5877 5878 5879 5880 5881 5882 5882 5883 5884 5884 5885 5885 5886 5886 5886 5886 5887 5887 5887 5888 5888 5887 5887 5886 5886 5886 5887 5888 5888 5888 5889 5890 5889 5888 5888 5888 5887 5886 5885 5885 5884 5883 5882 5880 5879 5877 5875 5873 5871 5869 5867 5864 5862 5860 5858 5855 5852 5850 5847 5845 5842 5838 5835 5833 5831 5829 5827 5825 5823 5821 5819 5818
5859 5860 5862 5864 5865 5866 5868 5869 5870 5871 5871 5872 5873 5874 5875 5876 5877 5878 5879 5879 5880 5880 5881 5882 5882 5883 5883 5883 5883 5884 5884 5884 5884 5884 5883 5883 5882 5881 5881 5882 5883 5884 5884 5884 5885 5885 5884 5884 5884 5883 5882 5882 5881 5880 5879 5878 5877 5875 5873 5871 5869 5868 5866 5863 5860 5858 5856 5853 5851 5848 5846 5844 5841 5838 5834 5831 5829 5827 5825 5822 5820 5818 5817 5815 5814
5855 5857 5859 5861 5862 5864 5865 5866 5867 5868 5868 5869 5870 5871 5872 5873 5873 5874 5875 5875 5876 5877 5877 5878 5878 5878 5879 5879 5880 5881 5881 5880 5880 5880 5879 5878 5878 5877 5877 5877 5878 5879 5879 5880 5880 5880 5879 5880 5879 5879 5878 5878 5877 5876 5875 5874 5873 5871 5869 5867 5865 5864 5861 5859 5856 5854 5852 5849 5847 5844 5842 5840 5837 5833 5830 5827 5825 5823 5821 5819 5817 5814 5813 5811 5809
5853 5855 5857 5858 5859 5860 5861 5862 5863 5864 5864 5865 5866 5867 5868 5869 5869 5869 5870 5870 5871 5872 5873 5873 5873 5873 5874 5875 5876 5876 5876 5876 5876 5876 5875 5874 5873 5873 5872 5872 5873 5874 5874 5875 5875 5874 5874 5875 5874 5874 5874 5873 5872 5872 5871 5870 5869 5868 5866 5864 5861 5859 5857 5854 5852 5850 5847 5845 5842 5839 5837 5835 5832 5829 5826 5823 5821 5819 5817 5815 5812 5810 5808 5806 5803
5852 5853 5853 5853 5854 5855 5857 5858 5859 5860 5861 5862 5863 5863 5864 5864 5864 5864 5865 5865 5866 5867 5867 5868 5868 5868 5869 5870 5870 5871 5872 5872 5872 5871 5871 5870 5869 5868 5867 5867 5868 5869 5870 5870 5870 5869 5870 5870 5870 5869 5869 5869 5868 5867 5866 5866 5865 5863 5861 5859 5857 5855 5852 5850 5848 5845 5842 5840 5837 5835 5833 5831 5828 5825 5822 5819 5817 5814 5812 5810 5807 5805 5804 5801 5797
5848 5848 5848 5848 5849 5851 5853 5854 5855 5856 5857 5858 5858 5859 5859 5859 5859 5860 5860 5861 5862 5862 5862 5863 5864 5864 5864 5864 5864 5865 5866 5867 5867 5867 5866 5865 5864 5863 5863 5863 5863 5864 5865 5865 5864 5864 5865 5865 5865 5864 5864 5863 5863 5862 5861 5860 5859 5858 5857 5855 5852 5850 5848 5845 5843 5840 5838 5835 5833 5831 5829 5827 5824 5821 5818 5814 5812 5810 5808 5805 5803 5800 5798 5795 5792
5843 5844 5844 5845 5846 5847 5848 5850 5851 5852 5853 5854 5854 5854 5855 5855 5855 5856 5856 5856 5857 5857 5857 5858 5858 5858 5858 5858 5858 5859 5860 5861 5861 5861 5861 5860 5859 5858 5858 5858 5859 5859 5859 5858 5857 5858 5860 5860 5860 5859 5858 5858 5858 5857 5856 5855 5854 5853 5851 5850 5848 5845 5843 5841 5838 5836 5833 5831 5829 5827 5825 5823 5820 5817 5814 5811 5808 5806 5803 5801 5798 5795 5793 5790 5787
5839 5840 5841 5842 5843 5843 5845 5847 5847 5848 5849 5849 5850 5850 5851 5851 5851 5851 5851 5851 5851 5851 5852 5851 5852 5852 5852 5852 5853 5853 5854 5854 5854 5854 5855 5853 5852 5851 5852 5853 5854 5854 5853 5852 5851 5853 5855 5855 5854 5854 5853 5852 5852 5852 5851 5849 5848 5847 5846 5845 5843 5841 5838 5836 5834 5831 5829 5827 5825 5823 5821 5818 5815 5812 5810 5807 5804 5802 5799 5796 5793 5791 5788 5785 5782
5835 5836 5837 5838 5839 5840 5841 5842 5843 5843 5844 5844 5844 5845 5845 5845 5845 5846 5845 5845 5845 5845 5845 5845 5845 5846 5846 5846 5847 5847 5847 5846 5845 5847 5848 5846 5844 5844 5845 5847 5848 5848 5847 5847 5846 5847 5849 5849 5848 5848 5847 5846 5846 5846 5845 5844 5843 5842 5841 5839 5838 5836 5833 5831 5829 5827 5825 5823 5821 5818 5816 5814 5811 5808 5806 5803 5800 5797 5794 5792 5789 5786 5783 5780 5777
5830 5831 5832 5833 5834 5835 5836 5837 5837 5838 5838 5838 5838 5839 5839 5839 5839 5839 5839 5839 5838 5838 5838 5838 5839 5839 5840 5841 5841 5841 5840 5839 5839 5841 5841 5839 5838 5838 5837 5838 5840 5841 5841 5840 5840 5840 5842 5843 5842 5842 5841 5841 5841 5840 5839 5838 5837 5836 5835 5834 5833 5831 5828 5826 5825 5823 5820 5818 5816 5814 5812 5809 5807 5804 5801 5798 5795 5793 5790 5787 5784 5781 5779 5775 5772
5825 5826 5827 5828 5829 5829 5830 5830 5831 5832 5832 5832 5833 5833 5833 5832 5832 5832 5832 5832 5831 5832 5832 5832 5831 5832 5832 5833 5833 5833 5833 5833 5833 5833 5833 5832 5831 5830 5829 5829 5831 5833 5833 5832 5832 5833 5834 5835 5835 5834 5835 5835 5835 5835 5834 5833 5832 5831 5830 5829 5828 5826 5824 5822 5821 5819 5816 5814 5811 5809 5807 5805 5802 5799 5796 5793 5790 5788 5785 5783 5780 5777 5774 5771 5768
5820 5821 5822 5823 5824 5824 5824 5825 5825 5826 5826 5826 5827 5827 5826 5826 5826 5825 5825 5824 5824 5825 5825 5825 5824 5824 5823 5823 5824 5824 5825 5825 5825 5825 5824 5824 5824 5823 5821 5820 5823 5825 5825 5824 5824 5824 5826 5828 5827 5826 5827 5829 5828 5828 5829 5828 5826 5826 5825 5825 5824 5821 5820 5818 5816 5814 5812 5809 5807 5805 5802 5800 5798 5795 5792 5789 5786 5784 5782 5778 5775 5772 5769 5766 5764
5814 5815 5816 5817 5818 5818 5819 5819 5819 5819 5820 5820 5820 5820 5819 5819 5818 5818 5817 5817 5816 5817 5816 5816 5816 5816 5815 5815 5814 5814 5816 5817 5816 5815 5817 5817 5817 5817 5815 5814 5815 5816 5816 5816 5818 5818 5819 5820 5818 5817 5820 5821 5821 5822 5823 5822 5821 5820 5820 5820 5819 5817 5815 5814 5812 5809 5807 5804 5802 5800 5798 5795 5793 5790 5787 5785 5783 5780 5777 5774 5771 5768 5765 5763 5760
5808 5809 5810 5811 5812 5812 5813 5813 5813 5813 5813 5813 5813 5812 5812 5811 5811 5810 5810 5809 5808 5808 5808 5807 5807 5807 5807 5807 5806 5806 5806 5807 5807 5808 5811 5811 5810 5808 5806 5806 5806 5807 5806 5808 5811 5811 5811 5809 5808 5810 5813 5814 5813 5814 5816 5816 5815 5814 5814 5813 5812 5811 5810 5809 5807 5805 5802 5800 5797 5795 5793 5790 5788 5786 5784 5781 5779 5776 5772 5769 5766 5764 5761 5759 5757
5803 5804 5804 5805 5806 5806 5806 5806 5806 5806 5806 5806 5806 5805 5804 5804 5803 5802 5802 5801 5800 5799 5799 5798 5798 5798 5798 5798 5798 5797 5797 5799 5800 5802 5803 5803 5801 5798 5796 5795 5796 5796 5796 5798 5800 5801 5800 5800 5801 5803 5805 5806 5806 5807 5808 5809 5808 5808 5807 5807 5806 5805 5805 5803 5802 5800 5797 5795 5793 5790 5788 5786 5784 5782 5780 5777 5774 5771 5767 5764 5762 5760 5758 5756 5753
5797 5798 5799 5799 5800 5800 5800 5800 5800 5800 5799 5799 5799 5798 5797 5796 5795 5794 5794 5794 5792 5792 5790 5789 5789 5789 5788 5788 5789 5789 5789 5791 5792 5791 5790 5791 5791 5789 5787 5788 5788 5786 5786 5788 5790 5790 5789 5789 5792 5795 5795 5796 5799 5801 5801 5802 5802 5801 5800 5800 5800 5800 5799 5798 5796 5794 5792 5790 5788 5786 5783 5781 5779 5777 5775 5773 5770 5767 5763 5760 5758 5756 5754 5752 5749
5791 5792 5792 5793 5793 5793 5793 5793 5792 5792 5792 5792 5792 5791 5790 5789 5787 5786 5786 5786 5785 5783 5780 5779 5779 5779 5778 5777 5777 5777 5778 5779 5780 5779 5779 5782 5783 5780 5777 5777 5779 5778 5778 5779 5780 5779 5779 5780 5783 5786 5786 5787 5791 5794 5795 5795 5796 5795 5794 5794 5794 5794 5793 5792 5791 5788 5786 5784 5783 5781 5779 5777 5775 5773 5771 5768 5766 5762 5759 5757 5755 5753 5750 5748 5746
5785 5786 5786 5786 5786 5786 5786 5785 5785 5784 5784 5784 5784 5783 5782 5781 5779 5778 5778 5778 5776 5773 5770 5769 5769 5769 5767 5765 5764 5764 5765 5766 5767 5768 5769 5770 5771 5768 5765 5766 5768 5769 5769 5769 5769 5769 5771 5775 5778 5779 5779 5781 5784 5787 5788 5789 5788 5788 5787 5788 5788 5788 5787 5786 5785 5782 5781 5779 5778 5776 5774 5772 5771 5769 5766 5764 5761 5758 5755 5753 5751 5749 5747 5744 5742
5779 5779 5779 5779 5779 5779 5778 5778 5777 5777 5777 5776 5776 5775 5774 5773 5772 5771 5770 5768 5766 5764 5761 5759 5758 5758 5756 5755 5753 5751 5751 5751 5752 5755 5758 5759 5758 5755 5753 5754 5757 5759 5760 5762 5764 5764 5765 5770 5773 5773 5774 5777 5779 5780 5781 5782 5781 5781 5782 5782 5782 5782 5781 5780 5778 5776 5775 5774 5772 5771 5770 5768 5766 5764 5762 5760 5757 5754 5752 5750 5747 5745 5743 5741 5739
5772 5772 5772 5772 5772 5771 5771 5770 5769 5769 5769 5769 5768 5767 5766 5765 5764 5763 5762 5760 5758 5756 5753 5750 5748 5746 5744 5743 5741 5738 5735 5734 5736 5740 5744 5745 5744 5743 5743 5745 5746 5747 5750 5754 5758 5759 5761 5764 5766 5766 5768 5771 5773 5773 5774 5775 5774 5774 5776 5776 5776 5775 5775 5774 5772 5771 5770 5769 5767 5766 5765 5763 5762 5760 5758 5756 5753 5750 5748 5746 5743 5741 5740 5738 5736
5764 5764 5764 5764 5763 5763 5762 5762 5762 5762 5761 5761 5760 5759 5758 5757 5756 5754 5753 5752 5750 5748 5745 5743 5741 5736 5733 5731 5727 5721 5715 5714 5717 5724 5728 5729 5729 5729 5732 5737 5739 5740 5743 5747 5749 5751 5754 5756 5757 5758 5760 5764 5766 5766 5767 5767 5767 5768 5769 5770 5769 5769 5768 5767 5766 5765 5764 5763 5762 5761 5760 5758 5757 5756 5754 5752 5749 5746 5744 5742 5740 5738 5736 5735 5733
5756 5756 5756 5755 5755 5755 5754 5754 5754 5754 5754 5753 5752 5751 5750 5749 5747 5745 5744 5744 5742 5737 5735 5736 5734 5729 5725 5721 5714 5706 5697 5689 5688 5697 5707 5714 5719 5722 5722 5725 5731 5735 5738 5741 5742 5743 5746 5749 5750 5752 5754 5757 5759 5760 5760 5760 5761 5762 5763 5763 5763 5762 5761 5761 5761 5760 5759 5758 5757 5756 5755 5754 5752 5751 5750 5748 5745 5742 5740 5738 5736 5734 5733 5732 5730
5749 5749 5749 5748 5748 5747 5747 5746 5746 5746 5746 5746 5745 5744 5742 5741 5739 5737 5736 5736 5733 5726 5723 5725 5724 5718 5715 5709 5701 5695 5683 5661 5651 5666 5687 5698 5707 5715 5715 5715 5719 5726 5731 5736 5736 5737 5740 5743 5744 5746 5749 5751 5752 5753 5754 5755 5756 5756 5757 5757 5757 5756 5755 5755 5755 5754 5754 5753 5752 5751 5750 5749 5748 5747 5746 5743 5741 5738 5736 5734 5732 5731 5730 5729 5727
5741 5741 5741 5740 5740 5740 5740 5739 5739 5739 5739 5739 5738 5737 5736 5734 5733 5730 5728 5728 5726 5719 5714 5714 5713 5708 5705 5699 5691 5686 5675 5652 5642 5661 5683 5691 5696 5707 5709 5707 5710 5717 5724 5728 5729 5731 5734 5736 5737 5739 5743 5744 5745 5746 5747 5748 5750 5750 5750 5750 5750 5749 5749 5749 5749 5749 5748 5748 5747 5746 5745 5745 5744 5743 5741 5739 5736 5734 5732 5730 5729 5728 5727 5725 5724
5734 5733 5733 5733 5733 5733 5733 5732 5732 5731 5732 5732 5732 5731 5730 5728 5726 5725 5722 5721 5720 5714 5708 5706 5704 5700 5698 5695 5687 5684 5684 5678 5674 5682 5690 5692 5695 5702 5702 5701 5706 5712 5717 5720 5722 5725 5728 5730 5732 5734 5736 5737 5737 5738 5739 5741 5742 5743 5743 5743 5743 5742 5743 5743 5744 5743 5743 5742 5741 5741 5740 5740 5739 5738 5737 5735 5732 5730 5728 5727 5726 5725 5724 5722 5721
5726 5726 5726 5726 5726 5726 5726 5725 5725 5724 5725 5725 5725 5724 5723 5721 5720 5718 5716 5714 5713 5709 5704 5701 5698 5695 5692 5691 5686 5682 5686 5691 5693 5692 5690 5689 5692 5695 5696 5698 5704 5707 5708 5711 5716 5720 5722 5724 5726 5728 5729 5729 5730 5731 5732 5733 5735 5736 5736 5736 5736 5736 5737 5738 5738 5738 5738 5737 5736 5736 5735 5735 5735 5734 5732 5730 5728 5726 5725 5724 5723 5722 5721 5720 5718
5719 5719 5719 5719 5719 5719 5718 5718 5717 5717 5717 5718 5718 5717 5716 5715 5713 5712 5710 5708 5707 5704 5700 5698 5696 5692 5689 5688 5686 5683 5683 5686 5688 5690 5689 5690 5692 5694 5695 5697 5700 5702 5703 5706 5710 5713 5715 5717 5718 5720 5722 5723 5725 5726 5726 5727 5728 5729 5729 5729 5730 5730 5732 5732 5733 5733 5732 5732 5731 5731 5731 5730 5730 5729 5728 5726 5724 5722 5721 5720 5720 5719 5718 5716 5715
5711 5711 5712 5712 5712 5711 5711 5710 5710 5710 5710 5710 5710 5710 5709 5708 5707 5705 5704 5702 5700 5699 5697 5695 5693 5691 5688 5686 5685 5683 5682 5682 5683 5685 5687 5689 5692 5693 5694 5694 5695 5698 5699 5701 5704 5707 5708 5709 5710 5712 5715 5718 5719 5720 5720 5721 5722 5723 5723 5723 5724 5725 5726 5727 5727 5727 5727 5727 5726 5726 5726 5726 5725 5724 5724 5722 5720 5719 5718 5717 5717 5716 5715 5713 5711
5704 5705 5705 5705 5705 5704 5704 5703 5703 5703 5702 5703 5703 5703 5702 5702 5701 5699 5697 5696 5694 5693 5692 5692 5691 5689 5687 5685 5684 5682 5682 5681 5681 5682 5683 5685 5686 5687 5688 5689 5690 5692 5694 5696 5699 5702 5703 5704 5705 5707 5709 5711 5713 5713 5714 5715 5716 5716 5716 5717 5718 5719 5720 5721 5721 5721 5722 5722 5721 5721 5721 5721 5720 5720 5719 5718 5716 5715 5714 5714 5713 5712 5711 5709 5708
5698 5698 5698 5699 5698 5698 5697 5697 5696 5696 5695 5695 5696 5696 5696 5695 5695 5693 5692 5691 5690 5688 5687 5687 5687 5686 5685 5683 5682 5681 5680 5681 5681 5681 5681 5682 5682 5683 5684 5685 5686 5688 5690 5692 5695 5696 5697 5698 5700 5702 5703 5705 5706 5707 5707 5708 5709 5710 5710 5711 5713 5714 5715 5716 5716 5716 5717 5717 5716 5716 5716 5716 5716 5715 5714 5714 5713 5712 5711 5711 5710 5709 5708 5706 5704
5691 5691 5692 5692 5692 5691 5691 5691 5690 5689 5689 5689 5688 5688 5688 5689 5689 5688 5687 5686 5685 5685 5684 5684 5683 5683 5683 5682 5681 5679 5679 5679 5679 5680 5680 5680 5680 5681 5681 5682 5683 5685 5686 5687 5689 5690 5692 5693 5695 5696 5697 5698 5699 5700 5701 5702 5703 5704 5705 5706 5707 5708 5709 5710 5711 5711 5711 5711 5711 5711 5711 5711 5711 5710 5710 5710 5709 5708 5708 5707 5707 5706 5704 5703 5701
5683 5684 5684 5685 5685 5685 5685 5684 5684 5683 5683 5683 5682 5681 5681 5682 5682 5682 5682 5681 5680 5680 5680 5680 5680 5679 5679 5678 5678 5678 5677 5676 5676 5677 5677 5677 5677 5677 5677 5678 5679 5680 5682 5683 5684 5686 5687 5688 5690 5691 5691 5692 5693 5694 5695 5696 5697 5698 5699 5701 5702 5703 5704 5704 5705 5705 5706 5706 5706 5706 5706 5706 5706 5706 5706 5706 5705 5705 5704 5704 5703 5702 5701 5700 5698
5676 5676 5677 5677 5678 5678 5678 5678 5678 5677 5677 5677 5676 5675 5674 5675 5676 5676 5675 5675 5675 5674 5674 5674 5675 5676 5675 5674 5674 5673 5672 5672 5672 5672 5672 5672 5673 5673 5674 5675 5675 5676 5678 5678 5679 5680 5681 5682 5684 5684 5685 5686 5687 5688 5689 5690 5691 5692 5693 5695 5696 5697 5698 5699 5699 5700 5700 5700 5700 5700 5700 5701 5701 5701 5701 5701 5701 5701 5701 5700 5700 5699 5698 5696 5695
5669 5669 5670 5670 5671 5671 5671 5671 5671 5671 5671 5670 5670 5669 5669 5669 5670 5669 5669 5669 5669 5668 5668 5668 5668 5669 5669 5669 5669 5668 5667 5667 5667 5667 5667 5667 5668 5669 5670 5671 5671 5672 5673 5674 5674 5675 5676 5677 5678 5679 5679 5680 5681 5682 5683 5685 5686 5687 5688 5689 5690 5691 5692 5693 5694 5694 5694 5695 5695 5695 5695 5696 5696 5696 5697 5697 5697 5697 5697 5696 5696 5695 5694 5693 5692
5664 5663 5664 5664 5664 5664 5665 5665 5665 5665 5665 5665 5664 5664 5664 5664 5664 5663 5663 5663 5663 5663 5663 5663 5663 5663 5663 5663 5663 5663 5663 5662 5662 5662 5662 5663 5664 5665 5666 5667 5667 5668 5668 5669 5670 5670 5671 5672 5673 5674 5674 5675 5676 5677 5678 5680 5681 5682 5683 5684 5685 5686 5687 5687 5688 5689 5689 5689 5689 5690 5690 5691 5691 5692 5692 5692 5693 5693 5693 5693 5692 5691 5690 5689 5688
5658 5658 5658 5658 5658 5658 5659 5659 5659 5659 5659 5659 5659 5658 5658 5658 5659 5659 5659 5659 5658 5658 5658 5658 5658 5658 5658 5657 5657 5658 5658 5658 5658 5658 5659 5659 5660 5661 5661 5662 5662 5662 5663 5663 5664 5665 5666 5667 5668 5668 5669 5670 5671 5672 5673 5675 5676 5676 5677 5678 5679 5680 5681 5682 5683 5683 5683 5684 5684 5685 5685 5686 5686 5687 5688 5688 5688 5689 5689 5688 5688 5687 5686 5686 5684
5652 5653 5652 5652 5653 5653 5653 5653 5654 5654 5654 5653 5653 5653 5653 5653 5654 5654 5655 5655 5654 5654 5654 5654 5655 5655 5654 5653 5653 5652 5652 5653 5654 5654 5655 5655 5655 5656 5656 5656 5656 5657 5657 5658 5659 5659 5660 5661 5662 5662 5664 5665 5666 5667 5668 5669 5670 5671 5672 5673 5674 5675 5675 5676 5677 5677 5678 5678 5679 5680 5681 5681 5682 5682 5683 5683 5684 5684 5684 5684 5684 5683 5682 5682 5681